Preview of NWS' New Version of Forecast
This preview is not operational and should not be used for support decisions.
Latest weather observations around

Philadelphia, Philadelphia International Airport (KPHL)

Using English Units (Switch to International System of Units)
Date/ Time (EST) Wind (mph) Vis. (mi) Weather Sky Cond. Temp (°F) Rel. Humidity Wind Chill (°F) Heat Index (°F) Pressure Precip. (in)
Air Dwpt 6 hour Altimeter (inHg) Sea level (inHg) 1 hr 3 hr 6 hr
Max Min
Feb 22 03:54   10 Cloudy BKN040 BKN070 OVC110 54 31     41%     30.47 30.46      
Feb 22 02:54 N 13 10 Cloudy BKN039 BKN070 OVC110 55 33     43%     30.46 30.45      
Feb 22 01:54 NNE 14 10 Cloudy BKN038 BKN050 OVC070 56 38     51%     30.45 30.45      
Feb 22 00:54 N 14 10 Cloudy BKN037 BKN070 OVC110 57 46     67%     30.43 30.42     0
Feb 21 23:54 N 13 10 Cloudy BKN033 BKN045 OVC070 58 49     72%     30.41 30.41 0    
Feb 21 22:54 N 15 10 Light Rain SCT031 BKN038 OVC050 61 55     81%     30.37 30.37 0    
Feb 21 21:54 N 16 10 Cloudy SCT035 BKN060 OVC090 67 61     81%     30.36 30.35      
Feb 21 20:54 NNW 14 10 Mostly Cloudy FEW080 BKN100 BKN160 68 60     76%     30.33 30.33      
Feb 21 19:54 6 10 Partly Cloudy FEW060 SCT110 SCT160 68 59     73%     30.3 30.29      
Feb 21 18:54 SSW 13 10 Partly Cloudy FEW100 SCT160 71 60     68%   71 30.28 30.28      
Feb 21 17:54 SSW 11 10 Partly Cloudy FEW060 SCT120 72 60     66%   72 30.26 30.26      
Feb 21 16:54 SSW 11 10 Partly Cloudy FEW030 SCT120 74 60     62%   74 30.25 30.24      
Feb 21 15:54 SSW 18 10 Partly Cloudy FEW030 SCT090 77 60     56%   77 30.25 30.24      
Feb 21 14:54 SW 15 10 Mostly Clear FEW030 FEW090 77 61     58%   77 30.24 30.24      
Feb 21 13:54 SW 15 10 Partly Cloudy FEW028 SCT090 74 60     62%   74 30.25 30.25      
Feb 21 12:54 SW 17 10 Mostly Cloudy FEW028 BKN090 BKN250 74 60     62%   74 30.28 30.27      
Feb 21 11:54 SW 22 10 Partly Cloudy and Windy FEW026 SCT090 SCT250 72 60     66%   72 30.29 30.29      
Feb 21 10:54 SW 16 10 Partly Cloudy SCT020 SCT250 69 60     73%     30.31 30.31      
Feb 21 10:34 SW 13 10 Partly Cloudy SCT015 67 60     79%     30.32        
Feb 21 09:54 SW 13 10 Mostly Cloudy BKN014 65 61     87%     30.33 30.33      
Feb 21 08:54 SW 11 9 Cloudy OVC012 62 60     93%     30.33 30.33      
Feb 21 07:54   7 Cloudy OVC010 61 59     93%     30.33 30.32      
Feb 21 07:33 SSW 15 6 Fog/Mist OVC009 60 59     96%     30.32        
Feb 21 06:54 SSW 11 4 Fog/Mist and Patchy Fog OVC008 59 59     100%     30.32 30.32      
Feb 21 06:21 SSW 6 3 Fog/Mist and Patchy Fog BKN009 OVC020 56 56     100%     30.32        
Feb 21 05:54 Calm 3 Fog/Mist and Patchy Fog SCT010 OVC028 54 54     100%     30.32 30.32      
Feb 21 05:44 Calm 3 Fog/Mist and Patchy Fog SCT010 OVC028 54 54     100%     30.32        
Feb 21 05:20 WSW 5 0.75 Fog/Mist and Patchy Fog FEW020 BKN028 BKN220 53 52     96%     30.32        
Feb 21 04:54 SW 3 1 Fog/Mist and Patchy Fog FEW013 FEW280 52 51     97%     30.31 30.31      
Feb 21 04:12 WSW 5 1 Fog/Mist and Patchy Fog FEW280 53 52     96%     30.32        
Feb 21 04:05 WSW 6 2 Fog/Mist and Patchy Fog FEW007 53 53     100%     30.32        
Feb 21 03:54 SW 6 4 Fog/Mist and Patchy Fog FEW007 56 56     100%     30.32 30.32      
Feb 21 03:47 SSW 5 4 Fog/Mist and Patchy Fog FEW007 56 56     100%     30.32        
Feb 21 03:15 S 8 4 Fog/Mist and Patchy Fog FEW007 57 57     100%     30.32        
Feb 21 02:54 SSW 7 5 Fog/Mist FEW007 58 57     97%     30.32 30.32      
Feb 21 02:28 S 8 5 Fog/Mist FEW007 58 57     97%     30.33        
Feb 21 02:05 SSW 7 4 Fog/Mist FEW007 57 57     100%     30.33        
Feb 21 01:54 S 7 5 Fog/Mist FEW007 57 57     100%     30.33 30.33      
Feb 21 01:25 S 7 5 Fog/Mist FEW007 57 56     96%     30.33        
Feb 21 00:54 SSW 7 7 Mostly Clear FEW007 58 57     97%     30.34 30.34      
Feb 21 00:05 SSW 8 9 Partly Cloudy SCT007 SCT015 59 57     93%     30.34        
Feb 20 23:54 6 10 Partly Cloudy SCT012 SCT280 58 57     97%     30.34 30.34      
Feb 20 22:54 S 9 10 Mostly Clear FEW250 59 56     90%     30.34 30.34      
Feb 20 21:54 SSW 5 10 Partly Cloudy SCT250 60 57     90%     30.35 30.35   0  
Feb 20 20:54 SSW 9 10 Mostly Cloudy BKN250 62 57     84%     30.34 30.34      
Feb 20 19:54 SSW 10 10 Mostly Cloudy BKN250 63 57     81%     30.33 30.33      
Feb 20 18:54 S 8 10 Mostly Cloudy BKN250 66 55     68%     30.33 30.32      
Feb 20 17:54 SSW 13 10 Mostly Cloudy BKN250 69 55     61%     30.31 30.31      
Feb 20 16:54 SSW 10 10 Mostly Cloudy BKN250 71 57     61%   71 30.29 30.28      
Feb 20 15:54 SSW 14 10 Mostly Cloudy BKN250 72 57     59%   72 30.28 30.28      
Feb 20 14:54 WSW 8 10 Mostly Cloudy BKN250 71 57     61%   71 30.29 30.29      
Feb 20 13:54 WSW 8 10 Partly Cloudy SCT250 66 56     70%     30.3 30.29      
Feb 20 12:54 WSW 13 10 Partly Cloudy FEW014 SCT250 63 55     75%     30.33 30.32     0
Feb 20 12:23 SW 13 9 Mostly Cloudy SCT010 BKN250 60 55     83%     30.34        
Feb 20 11:54 SW 11 7 Cloudy OVC007 57 55     93%     30.36 30.35      
Feb 20 11:50 SW 13 7 Cloudy OVC007 57 54     88%     30.36        
Feb 20 11:29 SW 13 5 Fog/Mist OVC006 55 54     96%     30.36        
Feb 20 10:54 WSW 13 4 Fog/Mist OVC005 54 53     97%     30.37 30.37      
Feb 20 10:33 SW 10 3 Fog/Mist OVC005 53 53     100%     30.37        
Feb 20 09:54 SW 10 2 Fog/Mist OVC003 53 53     100%     30.38 30.37 0 0  
Feb 20 08:54 SW 14 1.75 Light Drizzle and Fog/Mist OVC003 52 52     100%     30.37 30.37 0    
Feb 20 07:54 SW 11 1.25 Light Drizzle and Fog/Mist OVC003 51 51     100%     30.37 30.37 0    
Feb 20 06:54 SW 14 1.25 Light Drizzle and Fog/Mist OVC004 51 51     100%     30.35 30.35 0   0
Feb 20 06:28 SW 14 1.25 Fog/Mist OVC004 51 51     100%     30.34        
Feb 20 06:21 SW 15 2 Fog/Mist OVC003 51 51     100%     30.34        
Feb 20 06:14 SW 14 1 Fog/Mist OVC004 51 51     100%     30.34        
Feb 20 05:54 SW 9 0.5 Fog OVC002 50 50     100% 46   30.34 30.33      
Feb 20 04:54 SW 3 0.25 Fog OVC002 48 48     100% 47   30.32 30.32      
Feb 20 03:54 WSW 7 0.25 Fog OVC002 48 48     100% 45   30.32 30.31      
Feb 20 03:24 WSW 8 0.25 Fog VV002 49 48     97% 45   30.32        
Feb 20 02:54 WSW 5 0.25 Fog VV001 47 47     100% 45   30.33 30.32      
Feb 20 02:30 WSW 6 0.25 Fog VV001 47 47     100% 44   30.34        
Feb 20 01:54 W 7 0.25 Fog VV002 47 47     100% 44   30.34 30.34      
Feb 20 00:54 WSW 7 0.5 Fog VV002 47 47     100% 44   30.34 30.34      
Feb 20 00:28 WSW 8 0.5 Fog OVC002 48 48     100% 44   30.34        
Feb 19 23:54 SW 6 0.25 Fog VV001 48 48     100% 45   30.34 30.33      
Feb 19 23:17 SSW 7 0.25 Fog VV001 48 47     96% 45   30.34        
Feb 19 22:54 SW 3 0.5 Fog VV002 47 47     100% 46   30.35 30.35      
Feb 19 22:35 SSW 3 0.5 Fog VV002 47 47     100% 46   30.35        
Feb 19 21:54 SSW 3 0.75 Fog/Mist OVC002 47 46     97% 46   30.35 30.35      
Feb 19 21:39 SSW 3 0.75 Fog/Mist OVC002 47 46     97% 46   30.34        
Feb 19 21:31 SW 5 0.75 Fog/Mist OVC003 47 46     97% 45   30.35        
Feb 19 20:54 W 3 1.5 Fog/Mist OVC004 48 47     96% 47   30.35 30.35      
Feb 19 20:47 W 5 1.75 Fog/Mist OVC004 47 47     100% 45   30.35        
Feb 19 20:27 WSW 5 2 Fog/Mist OVC004 48 46     93% 46   30.35        
Feb 19 20:18 WSW 5 4 Fog/Mist OVC005 47 46     97% 45   30.35        
Feb 19 19:54 Calm 8 Cloudy OVC006 48 45     89%     30.35 30.34      
Feb 19 19:45 SW 3 10 Cloudy OVC006 48 45     89% 47   30.35        
Feb 19 19:13 SSW 5 10 Cloudy OVC009 48 44     86% 46   30.36        
Feb 19 18:54 SW 5 10 Cloudy OVC011 49 45     86% 47   30.36 30.35     0
Feb 19 17:54 3 10 Cloudy BKN012 OVC016 48 45     89% 47   30.35 30.35      
Feb 19 17:03 S 7 10 Cloudy BKN011 OVC016 48 43     83% 45   30.36        
Feb 19 16:54 S 7 10 Cloudy BKN015 OVC022 48 43     83% 45   30.37 30.37      
Feb 19 15:54 W 6 10 Cloudy OVC015 48 42     80% 45   30.38 30.38   0  
Feb 19 14:54 SSW 8 10 Cloudy OVC015 48 42     80% 44   30.38 30.38      
Feb 19 13:54 SSW 8 10 Cloudy OVC018 47 40     76% 43   30.4 30.4 0    
Feb 19 13:04 S 7 10 Cloudy OVC020 45 40     82% 41   30.43   0    
Feb 19 12:54 S 10 8 Light Rain OVC023 46 39     76% 41   30.44 30.43 0   0
Feb 19 12:20 SSW 10 10 Cloudy BKN026 OVC036 47 37     68% 42   30.46        
Feb 19 11:54 SW 8 10 Cloudy FEW028 BKN036 OVC047 47 37     68% 43   30.47 30.47 0    
Feb 19 10:54 SSW 8 10 Light Rain FEW048 OVC075 47 37     68% 43   30.49 30.49 0    
Feb 19 09:54 S 11 10 Mostly Cloudy FEW045 BKN090 BKN170 46 36     68% 41   30.49 30.49      
Feb 19 08:54 S 3 10 Mostly Cloudy BKN170 BKN240 40 34     79% 38   30.51 30.51      
Feb 19 07:54 Calm 10 Mostly Cloudy BKN190 BKN240 38 33     82%     30.52 30.51      
Feb 19 06:54 SE 3 10 Mostly Cloudy SCT110 BKN160 BKN210 35 31     85% 32   30.51 30.51      
Feb 19 05:54 SSE 3 10 Cloudy SCT120 BKN180 OVC230 37 32     82% 35   30.5 30.5      
Feb 19 04:54 S 6 10 Mostly Cloudy SCT220 BKN260 37 32     82% 32   30.53 30.53      
Feb 19 03:54 SSE 8 10 Mostly Cloudy BKN250 37 29     72% 31   30.51 30.5      
Jun 10 21:54 SSW 6 10 Mostly Clear FEW070 78 58     50%   78 30.05 30.04      
Jun 10 15:54   10 Mostly Clear FEW065 87 53     31%   85 29.99 29.99      
Jun 10 11:54 SW 9 10 Mostly Clear FEW150 FEW280 82 55     40%   81 30.03 30.03      
Jun 10 08:54 WSW 6 10 Mostly Cloudy FEW060 BKN120 BKN280 73 56     55%   73 30.03 30.03      
Jun 08 08:54 6 10 Clear   64 51     63%     30.01 30.01      
Jun 07 16:54 ENE 5 10 Cloudy OVC047 65 48     54%     30.02 30.01      
Jun 07 09:37 ENE 9 10 Cloudy BKN023 OVC040 57 47     69%     30.01        
Jun 06 06:32 NE 8 2 Rain and Fog/Mist SCT004 BKN012 OVC031 61 59     93%     29.7   0